Weather History for Ft Lauderdale, FL

Change the Weather History Date:

Thursday, October 11, 2012

  Actual Average Record
Temperature  
Mean Temperature 80 °F 82 °F  
Max Temperature 85 °F 87 °F 93 °F (1936)
Min Temperature 74 °F 76 °F 62 °F (1951)
Degree Days  
Heating Degree Days 0 0  
Month to date heating degree days 0 0  
Since 1 July heating degree days 0 0  
Cooling Degree Days 15 16  
Month to date cooling degree days 190 187  
Year to date cooling degree days 3904 3899  
Growing Degree Days 28 (Base 50)    
Moisture  
Dew Point 67 °F    
Average Humidity 71    
Maximum Humidity 87    
Minimum Humidity 55    
Precipitation  
Precipitation 0.00 in 0.28 in 5.46 in (1980)
Month to date precipitation 6.13 3.08  
Year to date precipitation 57.05 52.74  
Snow  
Snow 0.00 in - - ()
Month to date snowfall 0.0  
Since 1 July snowfall 0.0  
Since 1 September snowfall 0.0  
Snow Depth 0.00 in    
Sea Level Pressure  
Sea Level Pressure 30.07 in    
Wind  
Wind Speed 14 mph (NNE)    
Max Wind Speed 23 mph    
Max Gust Speed 29 mph    
Visibility 10 miles    
Events      
T = Trace of Precipitation, MM = Missing Value Source: NWS Daily Summary

Daily Weather History Graph

Daily Weather History Graph

Search for Another Location

Airport:

Trip Planner

Search our weather history database for the weather conditions in past years. The results will help you decide how hot, cold, wet, or windy it might be!

Date:

Astronomy

Oct. 11, 2012 Rise Set
Actual Time 7:17 AM EDT 6:56 PM EDT
Civil Twilight 6:54 AM EDT 7:19 PM EDT
Nautical Twilight 6:27 AM EDT 7:46 PM EDT
Astronomical Twilight 6:01 AM EDT 8:12 PM EDT
Moon 3:17 AM EDT (10/11) 4:12 PM EDT (10/11)
Length of Visible Light 12h 24m
Length of Day
11h 38m
Waning Crescent, 18% of the Moon is Illuminated
Oct 11
Waning Crescent
Oct 15
New
Oct 21
First Quarter
Oct 29
Full
Nov 6
Last Quarter

Hourly Weather History & Observations

Time (EDT) Temp. Heat Index Dew Point Humidity Pressure Visibility Wind Dir Wind Speed Gust Speed Precip Events Conditions
12:53 AM 81.0 °F 84.1 °F 69.1 °F 67% 30.04 in 10.0 mi NE 12.7 mph - N/A   Mostly Cloudy
1:53 AM 80.1 °F 82.7 °F 68.0 °F 67% 30.04 in 10.0 mi ENE 11.5 mph - N/A   Scattered Clouds
2:53 AM 80.1 °F 82.7 °F 68.0 °F 67% 30.04 in 10.0 mi NE 12.7 mph - N/A   Scattered Clouds
3:53 AM 77.0 °F - 70.0 °F 79% 30.03 in 10.0 mi NNW 5.8 mph - N/A   Scattered Clouds
4:53 AM 75.0 °F - 70.0 °F 84% 30.03 in 10.0 mi NNW 8.1 mph - N/A   Scattered Clouds
5:53 AM 75.0 °F - 70.0 °F 84% 30.04 in 10.0 mi NNW 8.1 mph - N/A   Scattered Clouds
6:53 AM 73.9 °F - 70.0 °F 87% 30.05 in 10.0 mi North 6.9 mph - N/A   Scattered Clouds
7:53 AM 75.0 °F - 69.1 °F 82% 30.07 in 10.0 mi North 6.9 mph - N/A   Scattered Clouds
8:53 AM 79.0 °F - 69.1 °F 72% 30.08 in 10.0 mi North 5.8 mph - N/A   Scattered Clouds
9:53 AM 82.9 °F 85.0 °F 66.0 °F 56% 30.10 in 10.0 mi NNE 15.0 mph - N/A   Scattered Clouds
10:53 AM 84.0 °F 86.3 °F 66.0 °F 55% 30.11 in 10.0 mi NNE 15.0 mph - N/A   Scattered Clouds
11:53 AM 84.0 °F 86.3 °F 66.0 °F 55% 30.11 in 10.0 mi ENE 17.3 mph - N/A   Scattered Clouds
12:53 PM 84.0 °F 86.3 °F 66.0 °F 55% 30.10 in 10.0 mi NNE 15.0 mph 21.9 mph N/A   Scattered Clouds
1:53 PM 84.9 °F 87.6 °F 66.9 °F 55% 30.08 in 10.0 mi ENE 15.0 mph 21.9 mph N/A   Scattered Clouds
2:53 PM 84.9 °F 87.1 °F 66.0 °F 53% 30.07 in 10.0 mi NE 17.3 mph 25.3 mph N/A   Scattered Clouds
3:53 PM 84.0 °F 86.5 °F 66.9 °F 56% 30.06 in 10.0 mi NE 19.6 mph 27.6 mph N/A   Partly Cloudy
4:53 PM 82.9 °F 85.8 °F 68.0 °F 60% 30.06 in 10.0 mi NE 16.1 mph - N/A   Partly Cloudy
5:53 PM 82.9 °F 85.8 °F 68.0 °F 60% 30.05 in 10.0 mi NNE 19.6 mph 26.5 mph N/A   Mostly Cloudy
6:53 PM 82.0 °F 84.1 °F 66.0 °F 58% 30.07 in 10.0 mi NE 15.0 mph 23.0 mph N/A   Scattered Clouds
7:53 PM 81.0 °F 83.0 °F 66.0 °F 60% 30.07 in 10.0 mi NNE 17.3 mph 24.2 mph N/A   Partly Cloudy
8:53 PM 81.0 °F 82.7 °F 64.9 °F 58% 30.09 in 10.0 mi NNE 17.3 mph - N/A   Partly Cloudy
9:53 PM 81.0 °F 83.3 °F 66.9 °F 62% 30.10 in 10.0 mi NE 17.3 mph - N/A   Scattered Clouds
10:53 PM 81.0 °F 83.8 °F 68.0 °F 65% 30.09 in 10.0 mi NE 19.6 mph 25.3 mph N/A   Scattered Clouds
11:53 PM 80.1 °F 81.9 °F 64.9 °F 60% 30.08 in 10.0 mi NE 16.1 mph - N/A   Partly Cloudy